[[{"header":{"parameterUnit":"m.s-1","parameterCategory":1,"la1":30.2991,"la2":30.254,"lo1":-89.0895,"lo2":-89.0444,"dy":0.0017,"dx":0.0017,"nx":28,"ny":28,"refTime":"2025-02-06T09:00:00:Z","depth":0,"parameterNumber":2,"parameterNumberName":"U-component_of_WINDS"},"data":[0,0,0,0,0,0,0,0,0,0,0,0,0,0,0,0,0,0,0,0,0,0,0,0,0,0,0,0,0,0,0,0,0,0,0,0,0,0,0,0,0,0,0,0,0,0,0,0,0,0,0,0,0,0,0,0,0,0,-1.5016,-1.5015,0,-1.4996,-1.4996,-1.4996,-1.4981,-1.4981,-1.4981,-1.498,-1.496,-1.496,-1.496,0,0,0,0,0,0,0,0,0,0,0,0,0,-1.5038,-1.5038,-1.5016,-1.5015,-1.5015,-1.4996,-1.4996,-1.4996,-1.4981,-1.4981,-1.4981,-1.498,-1.4961,-1.496,-1.496,0,0,0,0,0,0,0,0,0,0,0,0,0,-1.5025,-1.5038,-1.5016,-1.5005,-1.5004,-1.4997,-1.4996,-1.4996,-1.4981,-1.4981,-1.498,-1.498,-1.4961,-1.496,-1.496,-1.496,0,0,-1.4958,-1.4957,0,0,0,0,0,0,0,0,-1.5025,-1.5024,-1.5007,-1.5006,-1.5005,-1.4991,-1.4997,-1.4984,-1.4981,-1.499,-1.498,-1.498,-1.4971,-1.4969,-1.4966,-1.4959,-1.4959,-1.4958,-1.4957,-1.4957,-1.4957,0,0,0,0,0,0,0,-1.5026,-1.5025,-1.5008,-1.5007,-1.5006,-1.5001,-1.4999,-1.4994,-1.4982,-1.4989,-1.4988,-1.4986,-1.497,-1.4967,-1.4966,-1.4958,-1.4958,-1.4957,-1.4957,-1.4957,-1.4949,-1.495,0,0,0,0,0,0,-1.5029,-1.5025,-1.5009,-1.5007,-1.5015,-1.5001,-1.4999,-1.4996,-1.4982,-1.4979,-1.4986,-1.4985,-1.4968,-1.4966,-1.4965,-1.4964,-1.4957,-1.4957,-1.4956,-1.4949,-1.4949,-1.495,0,0,0,0,0,0,-1.503,-1.5028,-1.5009,-1.5016,-1.5013,-1.5001,-1.4998,-1.4995,-1.4992,-1.4979,-1.4977,-1.4985,-1.4968,-1.4966,-1.4961,-1.4963,-1.4956,-1.4956,-1.4949,-1.4949,-1.495,-1.4962,0,0,0,0,0,0,-1.503,-1.5028,-1.5029,-1.5016,-1.5013,-1.5007,-1.4998,-1.4995,-1.4991,-1.499,-1.4978,-1.4976,-1.4967,-1.4962,-1.4961,-1.4962,-1.4955,-1.4949,-1.4949,-1.4949,-1.4962,-1.4963,-1.4964,0,0,0,0,0,-1.5031,-1.5033,-1.5029,-1.5027,-1.5014,-1.5007,-1.5005,-1.4995,-1.4991,-1.4991,-1.4983,-1.4976,-1.4963,-1.4962,-1.496,-1.4961,-1.4949,-1.4949,-1.4949,-1.4961,-1.4963,-1.4964,0,0,0,0,0,0,-1.5046,-1.5031,-1.5026,-1.5024,-1.5017,-1.5004,-1.5004,-1.4997,-1.4991,-1.499,-1.4978,-1.4976,-1.4972,-1.4966,-1.4965,-1.496,-1.4955,-1.4955,-1.4964,-1.4966,-1.4967,-1.4968,-1.4955,0,0,0,0,0,-1.5049,-1.5045,-1.5032,-1.5032,-1.5028,-1.5017,-1.5014,-1.5007,-1.4998,-1.4995,-1.4987,-1.4979,-1.4972,-1.4969,-1.4963,-1.4961,-1.4957,-1.496,-1.4962,-1.4963,-1.4963,-1.496,-1.4961,-1.4951,-1.4951,-1.4951,0,0,-1.5055,-1.5047,-1.5045,-1.5035,-1.5028,-1.5023,-1.5014,-1.501,-1.5007,-1.4995,-1.499,-1.4983,-1.4973,-1.497,-1.4968,-1.4965,-1.4965,-1.4963,-1.4964,-1.4963,-1.496,-1.4961,-1.4962,-1.4951,-1.4951,-1.4951,0,0,-1.5064,-1.5058,-1.5056,-1.505,-1.504,-1.5032,-1.5031,-1.5019,-1.5014,-1.5009,-1.5,-1.4995,-1.4985,-1.4978,-1.4973,-1.4978,-1.4971,-1.4977,-1.4983,-1.498,-1.4981,-1.4982,-1.4982,-1.4983,-1.4977,-1.4977,-1.4977,0,-1.5073,-1.5067,-1.5056,-1.5052,-1.5047,-1.5036,-1.5034,-1.5028,-1.5016,-1.5013,-1.501,-1.4996,-1.4989,-1.4983,-1.4984,-1.4981,-1.4979,-1.4978,-1.4982,-1.4982,-1.4983,-1.4983,-1.4984,-1.4978,-1.4977,-1.4977,-1.4977,0,-1.5078,-1.5073,-1.5073,-1.5061,-1.5057,-1.5054,-1.5042,-1.5038,-1.5032,-1.5024,-1.5018,-1.5009,-1.5,-1.4998,-1.4992,-1.4991,-1.4989,-1.4984,-1.4978,-1.4984,-1.4985,-1.4985,-1.4978,-1.4978,-1.4978,-1.4978,0,0,-1.5096,-1.5078,-1.5078,-1.5072,-1.506,-1.5056,-1.5052,-1.5043,-1.504,-1.5032,-1.5028,-1.5019,-1.5014,-1.5008,-1.5001,-1.4999,-1.5002,-1.4993,-1.4993,-1.4995,-1.4999,-1.5003,-1.5003,-1.4997,-1.4997,-1.4997,-1.5,0,-1.5102,-1.5094,-1.5085,-1.508,-1.5075,-1.5063,-1.506,-1.5051,-1.5044,-1.5038,-1.503,-1.5023,-1.5017,-1.5014,-1.5011,-1.5002,-1.5002,-1.5002,-1.4992,-1.4992,-1.4995,-1.5003,-1.5008,-1.501,-1.5,-1.5,-1.5,0,-1.5109,-1.5101,-1.5096,-1.5083,-1.508,-1.5077,-1.5068,-1.5063,-1.5052,-1.5047,-1.504,-1.5032,-1.5026,-1.5022,-1.5013,-1.5013,-1.5008,-1.5003,-1.5003,-1.5001,-1.4996,-1.5001,-1.5011,-1.5011,-1.5,-1.5,-1.5,0,-1.5121,-1.511,-1.5105,-1.51,-1.5085,-1.5083,-1.5077,-1.5067,-1.5061,-1.5053,-1.5049,-1.5041,-1.5036,-1.5029,-1.5018,-1.5015,-1.501,-1.5005,-1.5005,-1.5005,-1.5004,-1.5004,-1.5013,-1.5002,-1.5002,-1.5002,-1.5002,0,-1.5129,-1.5126,-1.511,-1.5107,-1.5103,-1.5091,-1.5088,-1.508,-1.5071,-1.5066,-1.5055,-1.5051,-1.5037,-1.503,-1.5022,-1.5016,-1.5014,-1.5009,-1.5006,-1.5009,-1.501,-1.5006,-1.5005,-1.5002,-1.5002,-1.5002,-1.5002,0,-1.5142,-1.5131,-1.5125,-1.5111,-1.5108,-1.5105,-1.5093,-1.5089,-1.5081,-1.5074,-1.5072,-1.5059,-1.5051,-1.5039,-1.5027,-1.5022,-1.5016,-1.5013,-1.502,-1.5018,-1.5019,-1.5019,-1.5024,-1.5024,-1.5015,-1.5015,-1.5015,0,-1.5147,-1.5145,-1.513,-1.5126,-1.512,-1.5113,-1.5108,-1.5096,-1.5091,-1.5079,-1.5076,-1.5067,-1.5059,-1.5046,-1.5035,-1.5026,-1.5022,-1.5024,-1.502,-1.5023,-1.5021,-1.5021,-1.502,-1.5025,-1.5025,-1.5026,-1.5026,0,-1.5157,-1.5152,-1.5145,-1.5136,-1.513,-1.5122,-1.5113,-1.511,-1.5096,-1.5091,-1.5082,-1.5076,-1.5064,-1.5054,-1.5043,-1.5036,-1.5028,-1.5027,-1.5026,-1.5029,-1.5033,-1.503,-1.5022,-1.5027,-1.5027,-1.5027,-1.5027,-1.5027,-1.5166,-1.5163,-1.5152,-1.5144,-1.5137,-1.5129,-1.5124,-1.5115,-1.5108,-1.5097,-1.509,-1.5081,-1.507,-1.5055,-1.5048,-1.504,-1.5037,-1.5037,-1.5036,-1.5036,-1.5037,-1.5034,-1.5038,-1.5038,-1.5038,-1.5038,-1.5038,0,-1.5175,-1.5167,-1.516,-1.5149,-1.5142,-1.5136,-1.5126,-1.512,-1.5113,-1.5103,-1.5096,-1.5085,-1.5076,-1.5064,-1.5054,-1.505,-1.5046,-1.5047,-1.5047,-1.5046,-1.5041,-1.5042,-1.5051,-1.5051,-1.5051,-1.5051,-1.5051,-1.5051,-1.5179,-1.5173,-1.5166,-1.5156,-1.5148,-1.5139,-1.5134,-1.5127,-1.5119,-1.5107,-1.51,-1.5092,-1.5081,-1.507,-1.5061,-1.5057,-1.5054,-1.5056,-1.5052,-1.5047,-1.5046,-1.5045,-1.5046,-1.5056,-1.5056,-1.5057,-1.5057,-1.5057]},{"header":{"parameterUnit":"m.s-1","parameterCategory":1,"la1":30.2991,"la2":30.254,"lo1":-89.0895,"lo2":-89.0444,"dy":0.0017,"dx":0.0017,"nx":28,"ny":28,"refTime":"2025-02-06T09:00:00:Z","depth":0,"parameterNumber":3,"parameterNumberName":"V-component_of_WINDS"},"data":[0,0,0,0,0,0,0,0,0,0,0,0,0,0,0,0,0,0,0,0,0,0,0,0,0,0,0,0,0,0,0,0,0,0,0,0,0,0,0,0,0,0,0,0,0,0,0,0,0,0,0,0,0,0,0,0,0,0,2.7947,2.7948,0,2.7986,2.7987,2.7987,2.7956,2.7955,2.7954,2.7953,2.7989,2.7991,2.7993,0,0,0,0,0,0,0,0,0,0,0,0,0,2.7844,2.7846,2.7947,2.7948,2.7948,2.7986,2.7987,2.7987,2.7957,2.7955,2.7954,2.7952,2.7988,2.7991,2.7993,0,0,0,0,0,0,0,0,0,0,0,0,0,2.7886,2.7847,2.7947,2.7938,2.7937,2.7986,2.7987,2.7987,2.7957,2.7955,2.7953,2.7951,2.7987,2.7991,2.7994,2.8053,0,0,2.8004,2.8005,0,0,0,0,0,0,0,0,2.7884,2.789,2.7939,2.7939,2.7938,2.7965,2.7964,2.8009,2.7958,2.7949,2.7953,2.795,2.7982,2.7986,2.7997,2.8055,2.8056,2.8004,2.8006,2.8008,2.8008,0,0,0,0,0,0,0,2.7881,2.7888,2.7963,2.7939,2.7939,2.7931,2.7934,2.7972,2.7976,2.795,2.7948,2.7953,2.7982,2.7994,2.7998,2.8057,2.8004,2.8007,2.8009,2.801,2.8167,2.8169,0,0,0,0,0,0,2.7879,2.7886,2.7961,2.7964,2.7906,2.7934,2.7938,2.7958,2.7976,2.7977,2.7955,2.7952,2.799,2.7994,2.7999,2.8071,2.8007,2.8011,2.8012,2.8164,2.8167,2.8169,0,0,0,0,0,0,2.7877,2.7886,2.796,2.7924,2.7933,2.7938,2.796,2.796,2.7972,2.7979,2.798,2.7967,2.7988,2.7994,2.8041,2.8072,2.8012,2.8015,2.8162,2.8165,2.8168,2.8215,0,0,0,0,0,0,2.7874,2.7886,2.7909,2.7925,2.7935,2.8002,2.7962,2.7962,2.7979,2.7975,2.7991,2.7992,2.7987,2.8036,2.8044,2.8075,2.8018,2.8159,2.8163,2.8167,2.8211,2.822,2.8227,0,0,0,0,0,2.7871,2.792,2.7911,2.792,2.7965,2.8004,2.8009,2.8004,2.7981,2.8004,2.8009,2.7991,2.8067,2.8041,2.805,2.8083,2.8157,2.8162,2.8167,2.8207,2.8218,2.8227,0,0,0,0,0,0,2.7906,2.7922,2.7912,2.7967,2.7985,2.7998,2.8027,2.8015,2.8038,2.8034,2.8025,2.8029,2.8078,2.8084,2.8055,2.8142,2.8108,2.8115,2.8136,2.8146,2.8154,2.8152,2.802,0,0,0,0,0,2.792,2.7951,2.7963,2.8011,2.802,2.8023,2.8039,2.8034,2.8051,2.8058,2.8066,2.8082,2.811,2.8128,2.8153,2.8211,2.8215,2.8238,2.8246,2.8253,2.826,2.8292,2.8303,2.8186,2.8186,2.8186,0,0,2.7949,2.7962,2.7982,2.8018,2.8031,2.8064,2.8029,2.8064,2.8088,2.8063,2.8108,2.8114,2.8131,2.8184,2.8208,2.8191,2.8293,2.8259,2.8265,2.8268,2.8298,2.831,2.832,2.8189,2.8188,2.8188,0,0,2.802,2.8033,2.8075,2.8089,2.8109,2.8111,2.8121,2.8137,2.8141,2.8186,2.8168,2.8195,2.8243,2.8257,2.827,2.8347,2.8333,2.8356,2.8399,2.8431,2.844,2.8448,2.8478,2.8488,2.8362,2.8362,2.8362,0,2.8054,2.8104,2.8098,2.8136,2.8152,2.8132,2.8175,2.8188,2.8215,2.8227,2.8208,2.8268,2.8278,2.8335,2.8354,2.8365,2.8377,2.8355,2.8439,2.8448,2.8455,2.8483,2.8494,2.8365,2.8364,2.8364,2.8364,0,2.8145,2.818,2.8211,2.824,2.826,2.83,2.8299,2.832,2.8313,2.8316,2.8363,2.8374,2.8403,2.8415,2.8408,2.8471,2.8461,2.8441,2.8407,2.8469,2.8496,2.8506,2.8369,2.8368,2.8367,2.8366,0,0,2.824,2.8266,2.8278,2.8292,2.8313,2.8339,2.8377,2.8407,2.8425,2.8444,2.8477,2.8518,2.8501,2.8516,2.8509,2.8537,2.86,2.8514,2.8514,2.8531,2.8672,2.8689,2.8701,2.8589,2.8591,2.8593,2.8671,0,2.8313,2.8383,2.8379,2.8444,2.8476,2.8458,2.8492,2.8508,2.8512,2.8539,2.8542,2.8573,2.8546,2.8555,2.8582,2.8587,2.8628,2.8581,2.862,2.8622,2.8619,2.8714,2.8732,2.8805,2.8681,2.8683,2.8684,0,2.8409,2.8434,2.8503,2.8521,2.8534,2.8565,2.8592,2.8618,2.8636,2.8637,2.8655,2.8644,2.8683,2.8648,2.8701,2.8669,2.8685,2.869,2.8692,2.8697,2.8658,2.8724,2.8828,2.884,2.87,2.8699,2.8698,0,2.8474,2.8524,2.8572,2.8584,2.8605,2.8628,2.8637,2.8654,2.8672,2.8695,2.8707,2.8734,2.8749,2.877,2.8767,2.8741,2.8822,2.8786,2.8824,2.8825,2.8844,2.8843,2.8954,2.8851,2.885,2.885,2.885,0,2.8557,2.8601,2.8602,2.8632,2.8679,2.8674,2.8721,2.8728,2.8743,2.8774,2.8758,2.8787,2.878,2.8808,2.8806,2.8852,2.8858,2.886,2.8859,2.8863,2.8863,2.8874,2.887,2.8853,2.8852,2.8852,2.8851,0,2.8639,2.8641,2.8693,2.8709,2.8714,2.8749,2.8763,2.8791,2.8794,2.8833,2.8841,2.8845,2.8878,2.8877,2.8913,2.8911,2.8969,2.8961,2.8963,2.8962,2.9002,2.8999,2.9126,2.9143,2.9026,2.9028,2.9028,0,2.8693,2.8726,2.8747,2.8767,2.8779,2.8811,2.8831,2.8826,2.8846,2.887,2.8896,2.8927,2.8953,2.9006,2.9011,2.9039,2.9033,2.9076,2.9037,2.904,2.9036,2.9035,2.9039,2.9084,2.9085,2.9086,2.9087,0,2.879,2.879,2.8819,2.8849,2.8873,2.8896,2.8916,2.8933,2.8931,2.8955,2.8989,2.9009,2.9047,2.9079,2.9106,2.9115,2.9102,2.9099,2.911,2.9115,2.9116,2.9118,2.8986,2.9097,2.9096,2.9095,2.9094,2.9094,2.8861,2.889,2.8911,2.8944,2.8959,2.8979,2.9007,2.9014,2.9043,2.9075,2.907,2.9109,2.9126,2.9162,2.9173,2.9203,2.9188,2.9203,2.9207,2.9211,2.9217,2.911,2.9207,2.9207,2.9207,2.9207,2.9206,0,2.8959,2.8971,2.9002,2.9033,2.9059,2.9044,2.9067,2.909,2.9124,2.9142,2.9168,2.9208,2.9239,2.9247,2.9277,2.93,2.9294,2.9308,2.9307,2.931,2.9228,2.9217,2.9312,2.9312,2.9312,2.9312,2.9312,2.9312,2.9014,2.9063,2.9066,2.9123,2.9134,2.9173,2.9188,2.9206,2.9221,2.9267,2.9293,2.9299,2.9313,2.9344,2.9372,2.9373,2.9386,2.9403,2.9402,2.9326,2.9315,2.9305,2.9295,2.9405,2.9405,2.9482,2.9483,2.9483]}]]